Flag for Finland Weather past 2 weeks in Vantaa, Finland

Now
55 °F

Scattered clouds.


Feels Like: 55 °F
Forecast: 48 / 61 °F
Wind: 2 mph from North

Location: Helsinki-Vantaa

Current Time: Sep 5, 2015 at 8:18:42 PM

Latest Report: Sep 5, 2015 at 7:50 PM


Visibility: N/A

Pressure: 29.62 "Hg

Humidity: 94%

Dew point: 54 °F

Location of VantaaLocation

Historic Weather in Vantaa — Graph

°F

Vantaa temperature yesterday

Maximum temperature yesterday: 66 °F (at 4:50 PM)
Minimum temperature yesterday: 46 °F (at 7:20 AM)
Average temperature yesterday: 58 °F

Past Weeks' High & Low Weather Summary

 TemperatureHumidityPressure
High79 °F (Aug 23, 3:50 PM)100% (Aug 22, 4:20 AM)30.36 "Hg (Aug 22, 4:20 AM)
Low43 °F (Aug 31, 3:50 AM)38% (Aug 21, 7:20 PM)29.59 "Hg (Sep 5, 8:50 AM)
Average60 °F83%29.98 "Hg
* Reported Aug 21 7:20 PM — Sep 5 7:20 PM, Vantaa, Weather by CustomWeather, © 2015

Note: Actual official high and low records may vary slightly from our data, if they occured in-between our weather recording intervals... More about our weather records

Advertising

Vantaa weather history for previous 24 hours

 ConditionsComfort  
Time TempWeatherWind HumidityBarometerVisibility
7:20 PM
Sat, Sep 5
55 °FScattered clouds.5 mph88%29.62 "HgN/A
6:50 PM57 °FScattered clouds.1 mph82%29.62 "HgN/A
6:20 PM57 °FScattered showers. Scattered clouds.3 mph82%29.62 "HgN/A
5:50 PM55 °FRain showers. Broken clouds.5 mph88%29.62 "HgN/A
5:20 PM57 °FScattered showers. Broken clouds.6 mph82%29.62 "HgN/A
4:50 PM59 °FScattered showers. Broken clouds.5 mph77%29.62 "HgN/A
4:20 PM57 °FSprinkles. Broken clouds.6 mph82%29.62 "HgN/A
3:50 PM57 °FSprinkles. Broken clouds.9 mph82%29.62 "HgN/A
3:20 PM57 °FScattered showers. Partly sunny.8 mph82%29.62 "HgN/A
2:50 PM57 °FSprinkles. Partly sunny.7 mph88%29.62 "HgN/A
2:20 PM57 °FSprinkles. Partly sunny.7 mph88%29.62 "HgN/A
1:20 PM55 °FPartly sunny.3 mph94%29.62 "HgN/A
12:50 PM55 °FScattered showers. Partly sunny.6 mph94%29.62 "HgN/A
12:20 PM55 °FSprinkles. Partly sunny.2 mph88%29.62 "HgN/A
11:50 AM54 °FRain showers. Broken clouds.7 mph94%29.62 "HgN/A
11:20 AM59 °FSprinkles. Broken clouds.9 mph88%29.62 "HgN/A
10:50 AM57 °FPartly sunny.8 mph94%29.62 "HgN/A
10:20 AM57 °FPartly sunny.9 mph88%29.59 "HgN/A
9:50 AM57 °FSprinkles. Partly sunny.9 mph82%29.59 "HgN/A
9:20 AM57 °FThunderstorms. Broken clouds.12 mph94%29.59 "HgN/A
8:50 AM57 °FSprinkles. Broken clouds.10 mph100%29.59 "HgN/A
8:20 AM57 °FSprinkles. Broken clouds.6 mph100%29.62 "HgN/A
7:50 AM57 °FBroken clouds.6 mph100%29.62 "HgN/A
7:20 AM55 °FPartly cloudy.6 mph100%29.62 "HgN/A
6:50 AM54 °FPassing clouds.6 mph100%29.62 "HgN/A
6:20 AM52 °FPassing clouds.6 mph100%29.62 "HgN/A
5:50 AM52 °FPassing clouds.6 mph100%29.62 "HgN/A
5:20 AM52 °FPassing clouds.2 mph100%29.65 "HgN/A
4:50 AM50 °FFog.3 mph100%29.65 "HgN/A
4:20 AM52 °FPassing clouds.1 mph100%29.65 "HgN/A
3:50 AM52 °FPassing clouds.5 mph100%29.68 "HgN/A
3:20 AM52 °FThunderstorms. Passing clouds.5 mph100%29.68 "HgN/A
2:50 AM54 °FThunderstorms. Passing clouds.5 mph100%29.68 "HgN/A
2:20 AM54 °FClear.5 mph94%29.68 "Hg10 mi
1:50 AM54 °FPassing clouds.5 mph94%29.68 "HgN/A
1:20 AM54 °FPassing clouds.2 mph100%29.71 "HgN/A
12:20 AM54 °FSprinkles. Partly cloudy.7 mph94%29.71 "HgN/A
11:50 PM
Fri, Sep 4
55 °FPartly cloudy.5 mph94%29.74 "HgN/A
11:20 PM54 °FPartly cloudy.3 mph100%29.74 "HgN/A
10:50 PM54 °FPassing clouds.5 mph100%29.74 "HgN/A
10:20 PM57 °FPassing clouds.5 mph88%29.74 "HgN/A
9:50 PM59 °FPassing clouds.6 mph82%29.74 "HgN/A
9:20 PM57 °FPassing clouds.6 mph88%29.77 "HgN/A
8:50 PM59 °FScattered clouds.7 mph77%29.77 "HgN/A
8:20 PM59 °FScattered clouds.6 mph77%29.77 "HgN/A
Weather by CustomWeather, © 2015

See weather overviewHow to use our weather pages